User: anonymous   Login
Location: Weston
(26.1283°N, 80.4075°W)
Time: 08:07:42
(UTC-04:00)
Language:

H-2A R/B - Orbit

View from above orbital plane
View from above orbital plane
View from above satellite
View from above satellite

Ground track
Ground track

The orbit data is extracted from the following two-line orbital elements,

1 26899U 01038B   17085.24035820 +.00001669 +00000-0 +34832-3 0  9996
2 26899 028.0100 098.7447 7133572 133.4498 313.8231 02.47584836134428
Epoch (UTC): 26 March 2017 05:46:06
Eccentricity: 0.7133572
inclination: 28.0100°
perigee height: 238 km
apogee height: 33167 km
right ascension of ascending node: 98.7447°
argument of perigee: 133.4498°
revolutions per day: 2.47584836
mean anomaly at epoch: 313.8231°
orbit number at epoch: 13442

The dashed part of the orbit path shows where the satellite is in the earth's shadow,  

DLR